When you browse on this site, cookies collect data to enhance your experience and personalize the content and advertising you see.
Visit our Privacy Policy to learn more. By continuing to use the site, you agree to this use of cookies and data.
  • In Latvia
  • List of Countries
  • For 7 days
  • Water Temperature
  • Weather Map
  • Weather Widgets
  • user-avatar
    Login

    Hourly Weather Dankow

    Today, 15 October, Tuesday

    Time Temperature Precipitation Wind Pressure Humidity
    00:00 +16°C° 0 mm 2 mps 746 mmHg 75%
    01:00 +15°C° 0 mm 2 mps 746 mmHg 76%
    02:00 +15°C° 0 mm 2 mps 746 mmHg 77%
    03:00 +14°C° 0 mm 2 mps 745 mmHg 78%
    04:00 +13°C° 0 mm 3 mps 745 mmHg 80%
    05:00 +13°C° 0 mm 3 mps 745 mmHg 79%
    06:00 +12°C° 0 mm 4 mps 745 mmHg 78%
    07:00 +12°C° 0 mm 5 mps 745 mmHg 77%
    08:00 +14°C° 0 mm 5 mps 744 mmHg 71%
    09:00 +16°C° 0 mm 5 mps 744 mmHg 65%
    10:00 +17°C° 0 mm 5 mps 743 mmHg 59%
    11:00 +19°C° 0 mm 5 mps 743 mmHg 56%
    12:00 +20°C° 0 mm 5 mps 743 mmHg 53%
    13:00 +21°C° 0 mm 5 mps 743 mmHg 51%
    14:00 +21°C° 0 mm 5 mps 742 mmHg 54%
    15:00 +20°C° 0 mm 4 mps 742 mmHg 58%
    16:00 +19°C° 0 mm 3 mps 741 mmHg 61%
    17:00 +19°C° 0 mm 4 mps 741 mmHg 64%
    18:00 +18°C° 0 mm 4 mps 741 mmHg 67%
    19:00 +17°C° 0 mm 4 mps 741 mmHg 70%
    20:00 +15°C° 0 mm 4 mps 741 mmHg 72%
    21:00 +14°C° 0 mm 4 mps 741 mmHg 74%
    22:00 +14°C° 0 mm 4 mps 741 mmHg 76%
    23:00 +13°C° 0 mm 4 mps 741 mmHg 77%

    Tomorrow, 16 October, Wednesday

    Time Temperature Precipitation Wind Pressure Humidity
    00:00 +13°C° 0 mm 3 mps 741 mmHg 79%
    01:00 +13°C° 0 mm 3 mps 741 mmHg 80%
    02:00 +13°C° 0 mm 3 mps 741 mmHg 79%
    03:00 +13°C° 0 mm 4 mps 740 mmHg 77%
    04:00 +13°C° 0 mm 4 mps 740 mmHg 76%
    05:00 +13°C° 0 mm 4 mps 740 mmHg 75%
    06:00 +14°C° 0 mm 5 mps 741 mmHg 75%
    07:00 +14°C° 0 mm 6 mps 741 mmHg 74%
    08:00 +15°C° 0 mm 6 mps 741 mmHg 71%
    09:00 +16°C° 0 mm 7 mps 742 mmHg 69%
    10:00 +17°C° 0 mm 7 mps 743 mmHg 66%
    11:00 +18°C° 0 mm 7 mps 743 mmHg 63%
    12:00 +18°C° 0 mm 7 mps 743 mmHg 59%
    13:00 +18°C° 0 mm 7 mps 744 mmHg 56%
    14:00 +17°C° 0 mm 6 mps 744 mmHg 57%
    15:00 +17°C° 0 mm 5 mps 744 mmHg 58%
    16:00 +16°C° 0 mm 5 mps 744 mmHg 59%
    17:00 +15°C° 0 mm 4 mps 744 mmHg 61%
    18:00 +14°C° 0 mm 4 mps 744 mmHg 62%
    19:00 +13°C° 0 mm 4 mps 744 mmHg 64%
    20:00 +12°C° 0 mm 4 mps 745 mmHg 65%
    21:00 +12°C° 0 mm 4 mps 745 mmHg 67%
    22:00 +10°C° 0 mm 5 mps 745 mmHg 69%
    23:00 +10°C° 0 mm 5 mps 745 mmHg 69%

    Day after tomorrow, 17 October, Thursday

    Time Temperature Precipitation Wind Pressure Humidity
    00:00 +10°C° 0 mm 5 mps 745 mmHg 68%
    01:00 +10°C° 0 mm 5 mps 746 mmHg 67%
    02:00 +10°C° 0 mm 5 mps 746 mmHg 69%
    03:00 +9°C° 0 mm 5 mps 746 mmHg 70%
    04:00 +9°C° 0 mm 5 mps 746 mmHg 72%
    05:00 +9°C° 0 mm 5 mps 746 mmHg 72%
    06:00 +9°C° 0 mm 5 mps 746 mmHg 73%
    07:00 +9°C° 0 mm 5 mps 746 mmHg 73%
    08:00 +12°C° 0 mm 5 mps 746 mmHg 69%
    09:00 +13°C° 0 mm 4 mps 746 mmHg 64%
    10:00 +15°C° 0 mm 4 mps 747 mmHg 60%
    11:00 +17°C° 0 mm 4 mps 747 mmHg 58%
    12:00 +17°C° 0 mm 4 mps 747 mmHg 57%
    13:00 +18°C° 0 mm 4 mps 747 mmHg 55%
    14:00 +18°C° 0 mm 3 mps 747 mmHg 58%
    15:00 +17°C° 0 mm 2 mps 747 mmHg 60%
    16:00 +16°C° 0 mm 2 mps 746 mmHg 63%
    17:00 +16°C° 0 mm 2 mps 747 mmHg 64%
    18:00 +15°C° 0 mm 2 mps 747 mmHg 66%
    19:00 +14°C° 0 mm 1 mps 747 mmHg 67%
    20:00 +14°C° 0 mm 2 mps 747 mmHg 68%
    21:00 +14°C° 0 mm 2 mps 747 mmHg 68%
    22:00 +14°C° 0 mm 2 mps 747 mmHg 68%
    23:00 +14°C° 0 mm 2 mps 747 mmHg 67%

    18 October, Friday

    Time Temperature Precipitation Wind Pressure Humidity
    00:00 +14°C° 0 mm 2 mps 747 mmHg 66%
    01:00 +14°C° 0 mm 2 mps 747 mmHg 65%
    02:00 +14°C° 0 mm 2 mps 747 mmHg 67%
    03:00 +13°C° 0 mm 2 mps 747 mmHg 69%
    04:00 +13°C° 0 mm 2 mps 747 mmHg 71%
    05:00 +12°C° 0 mm 2 mps 747 mmHg 74%
    06:00 +12°C° 0 mm 2 mps 747 mmHg 78%
    07:00 +12°C° 0 mm 2 mps 747 mmHg 81%
    08:00 +13°C° 0 mm 2 mps 748 mmHg 75%
    09:00 +15°C° 0 mm 2 mps 748 mmHg 69%
    10:00 +16°C° 0 mm 2 mps 748 mmHg 62%
    11:00 +18°C° 0 mm 1 mps 748 mmHg 60%
    12:00 +19°C° 0 mm 1 mps 748 mmHg 58%
    13:00 +19°C° 0 mm 1 mps 748 mmHg 56%
    14:00 +19°C° 0 mm 1 mps 748 mmHg 59%
    15:00 +16°C° 0 mm 0 mps 747 mmHg 62%
    16:00 +16°C° 0 mm 0 mps 747 mmHg 65%
    17:00 +15°C° 0 mm 0 mps 747 mmHg 68%
    18:00 +15°C° 0 mm 1 mps 748 mmHg 70%
    19:00 +14°C° 0 mm 1 mps 748 mmHg 73%
    20:00 +14°C° 0 mm 1 mps 748 mmHg 75%
    21:00 +13°C° 0 mm 1 mps 748 mmHg 76%
    22:00 +13°C° 0 mm 1 mps 748 mmHg 77%
    23:00 +13°C° 0 mm 1 mps 748 mmHg 78%

    19 October, Saturday

    Time Temperature Precipitation Wind Pressure Humidity
    00:00 +13°C° 0 mm 1 mps 748 mmHg 79%
    01:00 +12°C° 0 mm 1 mps 747 mmHg 79%
    02:00 +12°C° 0 mm 1 mps 747 mmHg 79%
    03:00 +12°C° 0 mm 1 mps 747 mmHg 79%
    04:00 +12°C° 0 mm 1 mps 747 mmHg 79%
    05:00 +13°C° 0 mm 1 mps 747 mmHg 79%
    06:00 +13°C° 0 mm 1 mps 747 mmHg 79%
    07:00 +13°C° 0 mm 1 mps 747 mmHg 79%
    08:00 +14°C° 0 mm 2 mps 747 mmHg 75%
    09:00 +15°C° 0 mm 2 mps 747 mmHg 71%
    10:00 +16°C° 0 mm 2 mps 747 mmHg 67%
    11:00 +17°C° 0 mm 2 mps 747 mmHg 67%
    12:00 +18°C° 0 mm 1 mps 747 mmHg 67%
    13:00 +18°C° 0 mm 1 mps 746 mmHg 67%
    14:00 +18°C° 0 mm 1 mps 746 mmHg 68%
    15:00 +18°C° 0 mm 1 mps 746 mmHg 70%
    16:00 +16°C° 0 mm 2 mps 746 mmHg 71%
    17:00 +16°C° 0 mm 2 mps 746 mmHg 73%
    18:00 +16°C° 0 mm 2 mps 746 mmHg 75%
    19:00 +15°C° 0 mm 2 mps 745 mmHg 77%
    20:00 +15°C° 0 mm 2 mps 745 mmHg 80%
    21:00 +14°C° 0 mm 2 mps 745 mmHg 82%
    22:00 +14°C° 0 mm 2 mps 745 mmHg 84%
    23:00 +13°C° 0 mm 3 mps 744 mmHg 85%

    20 October, Sunday

    Time Temperature Precipitation Wind Pressure Humidity
    00:00 +12°C° 0 mm 3 mps 744 mmHg 86%
    01:00 +12°C° 0 mm 3 mps 744 mmHg 86%
    02:00 +12°C° 0 mm 3 mps 743 mmHg 87%
    03:00 +12°C° 0 mm 3 mps 743 mmHg 87%
    04:00 +11°C° 0 mm 3 mps 743 mmHg 88%
    05:00 +11°C° 0 mm 3 mps 742 mmHg 86%
    06:00 +12°C° 0 mm 3 mps 742 mmHg 84%
    07:00 +12°C° 0 mm 4 mps 742 mmHg 82%
    08:00 +14°C° 0 mm 4 mps 742 mmHg 73%
    09:00 +17°C° 0 mm 4 mps 742 mmHg 65%
    10:00 +19°C° 0 mm 5 mps 742 mmHg 57%
    11:00 +20°C° 0 mm 5 mps 742 mmHg 53%
    12:00 +21°C° 0 mm 5 mps 742 mmHg 50%
    13:00 +22°C° 0 mm 6 mps 741 mmHg 46%
    14:00 +22°C° 0 mm 5 mps 741 mmHg 49%
    15:00 +21°C° 0 mm 5 mps 741 mmHg 51%
    16:00 +20°C° 0 mm 4 mps 741 mmHg 54%
    17:00 +19°C° 0 mm 4 mps 741 mmHg 55%
    18:00 +19°C° 0 mm 4 mps 742 mmHg 57%
    19:00 +18°C° 0 mm 4 mps 742 mmHg 58%
    20:00 +18°C° 0 mm 4 mps 742 mmHg 60%
    21:00 +18°C° 0 mm 4 mps 743 mmHg 62%
    22:00 +17°C° 0 mm 4 mps 743 mmHg 64%
    23:00 +16°C° 0 mm 3 mps 743 mmHg 68%
    Show more